Weather History for Boscombe Down, United Kingdom

Change the Weather History Date:

Tuesday, December 25, 2012

  Actual Average Record
Temperature  
Mean Temperature 44 °F -  
Max Temperature 48 °F 42 °F 51 °F (2011)
Min Temperature 41 °F 34 °F 17 °F (2010)
Degree Days  
Heating Degree Days 20    
Moisture  
Dew Point 41 °F    
Average Humidity 86    
Maximum Humidity 93    
Minimum Humidity 71    
Precipitation  
Precipitation 0.16 in - - ()
Sea Level Pressure  
Sea Level Pressure 29.40 in    
Wind  
Wind Speed 12 mph ()    
Max Wind Speed 21 mph    
Max Gust Speed -    
Visibility 6.9 miles    
Events Rain    
Averages and records for this station are not official NWS values.
T = Trace of Precipitation, MM = Missing Value Source: Averaged Metar Reports

Daily Weather History Graph

Daily Weather History Graph

Search for Another Location

Airport:

Trip Planner

Search our weather history database for the weather conditions in past years. The results will help you decide how hot, cold, wet, or windy it might be!

Date:

Astronomy

Dec. 25, 2012 Rise Set
Actual Time 8:10 AM GMT 4:04 PM GMT
Civil Twilight 7:30 AM GMT 4:44 PM GMT
Nautical Twilight 6:47 AM GMT 5:27 PM GMT
Astronomical Twilight 6:07 AM GMT 6:07 PM GMT
Moon 2:07 PM GMT (12/25) 5:23 AM GMT (12/25)
Length of Visible Light 9h 13m
Length of Day
7h 54m
Waxing Gibbous, 92% of the Moon is Illuminated
Dec 25
Waxing Gibbous
Dec 28
Full
Jan 5
Last Quarter
Jan 11
New
Jan 18
First Quarter

Hourly Weather History & Observations

Time (GMT) Temp. Windchill Dew Point Humidity Pressure Visibility Wind Dir Wind Speed Gust Speed Precip Events Conditions
12:50 AM 46.4 °F 40.4 °F 44.6 °F 93% 29.39 in 6.2 mi SSW 13.8 mph - N/A   Mostly Cloudy
1:50 AM 46.4 °F 41.5 °F 44.6 °F 93% 29.36 in 6.2 mi SSW 10.4 mph - N/A   Scattered Clouds
2:50 AM 46 °F - 43 °F 85% 29.37 in 28 mi SSW 13.8 mph - - Rain Rain
2:50 AM 46.4 °F 40.4 °F 42.8 °F 87% 29.36 in 6.2 mi SSW 13.8 mph - N/A   Mostly Cloudy
3:50 AM 44.6 °F 39.2 °F 41.0 °F 87% 29.33 in 6.2 mi South 10.4 mph - N/A   Mostly Cloudy
4:50 AM 44.6 °F 39.2 °F 42.8 °F 93% 29.30 in 6.2 mi South 10.4 mph - N/A   Mostly Cloudy
5:50 AM 45 °F - 43 °F 88% 29.30 in 12 mi South 11.5 mph - - Rain Rain
5:50 AM 44.6 °F 38.8 °F 42.8 °F 93% 29.27 in 6.2 mi South 11.5 mph - N/A   Scattered Clouds
6:50 AM 44.6 °F 37.8 °F 42.8 °F 93% 29.27 in 6.2 mi SSW 15.0 mph - N/A Rain Rain Showers
7:50 AM 44.6 °F 36.9 °F 41.0 °F 87% 29.24 in 4.3 mi SW 18.4 mph - N/A Rain Heavy Rain Showers
8:50 AM 43 °F - 41 °F 91% 29.26 in 19 mi South 10.4 mph - - Rain Rain
8:50 AM 42.8 °F 37.0 °F 41.0 °F 93% 29.24 in 6.2 mi South 10.4 mph - N/A   Mostly Cloudy
9:50 AM 44.6 °F 43.1 °F 42.8 °F 93% 29.24 in 6.2 mi South 3.5 mph - N/A Rain Light Rain Showers
10:50 AM 44.6 °F 39.7 °F 42.8 °F 93% 29.27 in 6.2 mi WSW 9.2 mph - N/A   Mostly Cloudy
11:50 AM 47 °F - 43 °F 81% 29.31 in 22 mi West 17.3 mph - -   Partly Cloudy
11:50 AM 46.4 °F 39.5 °F 42.8 °F 87% 29.30 in 6.2 mi West 17.3 mph - N/A   Mostly Cloudy
12:50 PM 46.4 °F 39.2 °F 42.8 °F 87% 29.33 in 6.2 mi West 18.4 mph - N/A   Mostly Cloudy
1:50 PM 48.2 °F - 42.8 °F 82% 29.36 in 6.2 mi West 20.7 mph - N/A   Mostly Cloudy
2:50 PM 47 °F - 41 °F 72% 29.42 in 22 mi West 17.3 mph - -   Mostly Cloudy
2:50 PM 46.4 °F 39.5 °F 41.0 °F 81% 29.39 in 6.2 mi West 17.3 mph - N/A   Mostly Cloudy
3:50 PM 46.4 °F 39.2 °F 41.0 °F 81% 29.44 in 6.2 mi West 18.4 mph - N/A   Mostly Cloudy
4:50 PM 44.6 °F 37.2 °F 39.2 °F 81% 29.47 in 6.2 mi West 17.3 mph - N/A   Mostly Cloudy
5:50 PM 45 °F - 39 °F 71%  in 31 mi West 18.4 mph - -   Mostly Cloudy
5:50 PM 44.6 °F 36.9 °F 39.2 °F 81% 29.50 in 6.2 mi West 18.4 mph - N/A   Mostly Cloudy
6:50 PM 44.6 °F 39.2 °F 39.2 °F 81% 29.56 in 6.2 mi West 10.4 mph - N/A   Mostly Cloudy
7:50 PM 42.8 °F 37.5 °F 37.4 °F 81% 29.56 in 6.2 mi West 9.2 mph - N/A   Scattered Clouds
8:50 PM 42 °F - 37 °F 77% 29.61 in 31 mi SW 10.4 mph - -   Mostly Cloudy
8:50 PM 41.0 °F 34.7 °F 37.4 °F 87% 29.59 in 6.2 mi SW 10.4 mph - N/A   Mostly Cloudy
9:50 PM 41.0 °F 35.2 °F 37.4 °F 87% 29.59 in 6.2 mi SSW 9.2 mph - N/A   Mostly Cloudy
10:50 PM 41.0 °F 35.2 °F 39.2 °F 93% 29.62 in 6.2 mi SSW 9.2 mph - N/A   Mostly Cloudy
11:50 PM 42 °F - 40 °F 89% 29.65 in 9 mi WSW 5.8 mph - - Rain Rain Showers
11:50 PM 42.8 °F 39.3 °F 39.2 °F 87% 29.62 in 6.2 mi WSW 5.8 mph - N/A Rain Rain Showers